datetime,flow
1927-01-01,22.0
1927-01-02,22.0
1927-01-03,22.0
1927-01-04,22.0
1927-01-05,22.0
1927-01-06,22.0
1927-01-07,22.0
1927-01-08,22.0
1927-01-09,22.0
1927-01-10,22.0
1927-01-11,22.0
1927-01-12,22.0
1927-01-13,22.0
1927-01-14,22.0
1927-01-15,22.0
1927-01-16,22.0
1927-01-17,22.0
1927-01-18,22.0
1927-01-19,22.0
1927-01-20,22.0
1927-01-21,22.0
1927-01-22,22.0
1927-01-23,22.0
1927-01-24,22.0
1927-01-25,22.0
1927-01-26,22.0
1927-01-27,22.0
1927-01-28,22.0
1927-01-29,22.0
1927-01-30,22.0
1927-01-31,22.0
1927-02-01,20.0
1927-02-02,20.0
1927-02-03,20.0
1927-02-04,20.0
1927-02-05,20.0
1927-02-06,20.0
1927-02-07,20.0
1927-02-08,20.0
1927-02-09,20.0
1927-02-10,20.0
1927-02-11,20.0
1927-02-12,20.0
1927-02-13,20.0
1927-02-14,20.0
1927-02-15,20.0
1927-02-16,20.0
1927-02-17,20.0
1927-02-18,20.0
1927-02-19,20.0
1927-02-20,20.0
1927-02-21,20.0
1927-02-22,20.0
1927-02-23,20.0
1927-02-24,20.0
1927-02-25,20.0
1927-02-26,20.0
1927-02-27,20.0
1927-02-28,20.0
1927-03-01,23.0
1927-03-02,23.0
1927-03-03,23.0
1927-03-04,23.0
1927-03-05,23.0
1927-03-06,25.0
1927-03-07,25.0
1927-03-08,25.0
1927-03-09,25.0
1927-03-10,25.0
1927-03-11,22.0
1927-03-12,22.0
1927-03-13,22.0
1927-03-14,22.0
1927-03-15,22.0
1927-03-16,20.0
1927-03-17,20.0
1927-03-18,20.0
1927-03-19,20.0
1927-03-20,20.0
1927-03-21,29.0
1927-03-22,29.0
1927-03-23,29.0
1927-03-24,29.0
1927-03-25,29.0
1927-03-26,37.0
1927-03-27,36.0
1927-03-28,25.0
1927-03-29,26.0
1927-03-30,35.0
1927-03-31,54.0
1927-04-01,54.0
1927-04-02,32.0
1927-04-03,39.0
1927-04-04,46.0
1927-04-05,42.0
1927-04-06,37.0
1927-04-07,36.0
1927-04-08,46.0
1927-04-09,55.0
1927-04-10,50.0
1927-04-11,49.0
1927-04-12,78.0
1927-04-13,62.0
1927-04-14,58.0
1927-04-15,54.0
1927-04-16,55.0
1927-04-17,60.0
1927-04-18,72.0
1927-04-19,88.0
1927-04-20,83.0
1927-04-21,69.0
1927-04-22,76.0
1927-04-23,77.0
1927-04-24,83.0
1927-04-25,91.0
1927-04-26,115.0
1927-04-27,146.0
1927-04-28,173.0
1927-04-29,175.0
1927-04-30,175.0
1927-05-01,193.0
1927-05-02,234.0
1927-05-03,246.0
1927-05-04,231.0
1927-05-05,240.0
1927-05-06,212.0
1927-05-07,246.0
1927-05-08,302.0
1927-05-09,228.0
1927-05-10,207.0
1927-05-11,188.0
1927-05-12,190.0
1927-05-13,195.0
1927-05-14,237.0
1927-05-15,288.0
1927-05-16,402.0
1927-05-17,558.0
1927-05-18,644.0
1927-05-19,570.0
1927-05-20,554.0
1927-05-21,622.0
1927-05-22,694.0
1927-05-23,644.0
1927-05-24,494.0
1927-05-25,426.0
1927-05-26,474.0
1927-05-27,486.0
1927-05-28,502.0
1927-05-29,502.0
1927-05-30,390.0
1927-05-31,355.0
1927-06-01,352.0
1927-06-02,358.0
1927-06-03,430.0
1927-06-04,383.0
1927-06-05,406.0
1927-06-06,458.0
1927-06-07,542.0
1927-06-08,689.0
1927-06-09,712.0
1927-06-10,770.0
1927-06-11,761.0
1927-06-12,833.0
1927-06-13,770.0
1927-06-14,644.0
1927-06-15,716.0
1927-06-16,658.0
1927-06-17,635.0
1927-06-18,838.0
1927-06-19,882.0
1927-06-20,806.0
1927-06-21,797.0
1927-06-22,684.0
1927-06-23,671.0
1927-06-24,806.0
1927-06-25,842.0
1927-06-26,842.0
1927-06-27,905.0
1927-06-28,923.0
1927-06-29,928.0
1927-06-30,824.0
1927-07-01,599.0
1927-07-02,558.0
1927-07-03,562.0
1927-07-04,582.0
1927-07-05,599.0
1927-07-06,554.0
1927-07-07,510.0
1927-07-08,490.0
1927-07-09,466.0
1927-07-10,617.0
1927-07-11,558.0
1927-07-12,470.0
1927-07-13,450.0
1927-07-14,454.0
1927-07-15,394.0
1927-07-16,362.0
1927-07-17,352.0
1927-07-18,338.0
1927-07-19,341.0
1927-07-20,327.0
1927-07-21,338.0
1927-07-22,422.0
1927-07-23,406.0
1927-07-24,390.0
1927-07-25,376.0
1927-07-26,316.0
1927-07-27,292.0
1927-07-28,334.0
1927-07-29,422.0
1927-07-30,398.0
1927-07-31,341.0
1927-08-01,299.0
1927-08-02,320.0
1927-08-03,348.0
1927-08-04,320.0
1927-08-05,278.0
1927-08-06,262.0
1927-08-07,292.0
1927-08-08,316.0
1927-08-09,390.0
1927-08-10,288.0
1927-08-11,252.0
1927-08-12,234.0
1927-08-13,222.0
1927-08-14,212.0
1927-08-15,212.0
1927-08-16,202.0
1927-08-17,186.0
1927-08-18,177.0
1927-08-19,179.0
1927-08-20,179.0
1927-08-21,173.0
1927-08-22,169.0
1927-08-23,171.0
1927-08-24,160.0
1927-08-25,151.0
1927-08-26,160.0
1927-08-27,160.0
1927-08-28,169.0
1927-08-29,160.0
1927-08-30,135.0
1927-08-31,124.0
1927-09-01,116.0
1927-09-02,107.0
1927-09-03,104.0
1927-09-04,99.0
1927-09-05,98.0
1927-09-06,96.0
1927-09-07,90.0
1927-09-08,89.0
1927-09-09,90.0
1927-09-10,97.0
1927-09-11,108.0
1927-09-12,110.0
1927-09-13,113.0
1927-09-14,117.0
1927-09-15,115.0
1927-09-16,94.0
1927-09-17,87.0
1927-09-18,90.0
1927-09-19,94.0
1927-09-20,89.0
1927-09-21,85.0
1927-09-22,80.0
1927-09-23,88.0
1927-09-24,92.0
1927-09-25,99.0
1927-09-26,117.0
1927-09-27,110.0
1927-09-28,105.0
1927-09-29,93.0
1927-09-30,92.0
1927-10-01,95.0
1927-10-02,98.0
1927-10-03,95.0
1927-10-04,100.0
1927-10-05,97.0
1927-10-06,98.0
1927-10-07,102.0
1927-10-08,95.0
1927-10-09,88.0
1927-10-10,86.0
1927-10-11,80.0
1927-10-12,69.0
1927-10-13,76.0
1927-10-14,74.0
1927-10-15,74.0
1927-10-16,73.0
1927-10-17,74.0
1927-10-18,73.0
1927-10-19,73.0
1927-10-20,73.0
1927-10-21,72.0
1927-10-22,71.0
1927-10-23,68.0
1927-10-24,63.0
1927-10-25,61.0
1927-10-26,60.0
1927-10-27,59.0
1927-10-28,58.0
1927-10-29,63.0
1927-10-30,64.0
1927-10-31,63.0
1927-11-01,65.0
1927-11-02,52.0
1927-11-03,52.0
1927-11-04,40.0
1927-11-05,60.0
1927-11-06,56.0
1927-11-07,58.0
1927-11-08,57.0
1927-11-09,56.0
1927-11-10,52.0
1927-11-11,45.0
1927-11-12,41.0
1927-11-13,52.0
1927-11-14,50.0
1927-11-15,43.0
1927-11-16,37.0
1927-11-17,57.0
1927-11-18,52.0
1927-11-19,51.0
1927-11-20,54.0
1927-11-21,52.0
1927-11-22,48.0
1927-11-23,42.0
1927-11-24,29.0
1927-11-25,48.0
1927-11-26,51.0
1927-11-27,50.0
1927-11-28,44.0
1927-11-29,44.0
1927-11-30,42.0
1927-12-01,40.0
1927-12-02,40.0
1927-12-03,38.0
1927-12-04,38.0
1927-12-05,38.0
1927-12-06,48.0
1927-12-07,33.0
1927-12-08,25.0
1927-12-09,18.0
1927-12-10,19.0
1927-12-11,36.0
1927-12-12,42.0
1927-12-13,39.0
1927-12-14,39.0
1927-12-15,33.0
1927-12-16,30.0
1927-12-17,29.0
1927-12-18,31.0
1927-12-19,27.0
1927-12-20,26.0
1927-12-21,26.0
1927-12-22,26.0
1927-12-23,26.0
1927-12-24,24.0
1927-12-25,24.0
1927-12-26,27.0
1927-12-27,28.0
1927-12-28,28.0
1927-12-29,29.0
1927-12-30,30.0
1927-12-31,31.0
1928-01-01,32.0
1928-01-02,33.0
1928-01-03,32.0
1928-01-04,31.0
1928-01-05,33.0
1928-01-06,33.0
1928-01-07,32.0
1928-01-08,30.0
1928-01-09,31.0
1928-01-10,31.0
1928-01-11,33.0
1928-01-12,33.0
1928-01-13,33.0
1928-01-14,32.0
1928-01-15,31.0
1928-01-16,30.0
1928-01-17,30.0
1928-01-18,29.0
1928-01-19,28.0
1928-01-20,28.0
1928-01-21,27.0
1928-01-22,26.0
1928-01-23,28.0
1928-01-24,26.0
1928-01-25,25.0
1928-01-26,25.0
1928-01-27,24.0
1928-01-28,24.0
1928-01-29,24.0
1928-01-30,27.0
1928-01-31,27.0
1928-02-01,27.0
1928-02-02,27.0
1928-02-03,27.0
1928-02-04,28.0
1928-02-05,28.0
1928-02-06,28.0
1928-02-07,27.0
1928-02-08,26.0
1928-02-09,25.0
1928-02-10,25.0
1928-02-11,26.0
1928-02-12,26.0
1928-02-13,25.0
1928-02-14,24.0
1928-02-15,24.0
1928-02-16,24.0
1928-02-17,25.0
1928-02-18,25.0
1928-02-19,24.0
1928-02-20,25.0
1928-02-21,24.0
1928-02-22,24.0
1928-02-23,24.0
1928-02-24,23.0
1928-02-25,22.0
1928-02-26,20.0
1928-02-27,23.0
1928-02-28,23.0
1928-02-29,24.0
1928-03-01,24.0
1928-03-02,23.0
1928-03-03,22.0
1928-03-04,22.0
1928-03-05,26.0
1928-03-06,26.0
1928-03-07,26.0
1928-03-08,25.0
1928-03-09,25.0
1928-03-10,26.0
1928-03-11,25.0
1928-03-12,28.0
1928-03-13,26.0
1928-03-14,26.0
1928-03-15,23.0
1928-03-16,23.0
1928-03-17,26.0
1928-03-18,25.0
1928-03-19,27.0
1928-03-20,27.0
1928-03-21,34.0
1928-03-22,47.0
1928-03-23,60.0
1928-03-24,54.0
1928-03-25,46.0
1928-03-26,42.0
1928-03-27,53.0
1928-03-28,43.0
1928-03-29,41.0
1928-03-30,36.0
1928-03-31,35.0
1928-04-01,41.0
1928-04-02,43.0
1928-04-03,45.0
1928-04-04,45.0
1928-04-05,39.0
1928-04-06,40.0
1928-04-07,34.0
1928-04-08,36.0
1928-04-09,32.0
1928-04-10,41.0
1928-04-11,38.0
1928-04-12,36.0
1928-04-13,34.0
1928-04-14,31.0
1928-04-15,37.0
1928-04-16,38.0
1928-04-17,40.0
1928-04-18,40.0
1928-04-19,38.0
1928-04-20,37.0
1928-04-21,40.0
1928-04-22,38.0
1928-04-23,42.0
1928-04-24,42.0
1928-04-25,47.0
1928-04-26,51.0
1928-04-27,53.0
1928-04-28,76.0
1928-04-29,98.0
1928-04-30,101.0
1928-05-01,130.0
1928-05-02,228.0
1928-05-03,243.0
1928-05-04,209.0
1928-05-05,222.0
1928-05-06,214.0
1928-05-07,255.0
1928-05-08,336.0
1928-05-09,498.0
1928-05-10,724.0
1928-05-11,634.0
1928-05-12,510.0
1928-05-13,482.0
1928-05-14,605.0
1928-05-15,575.0
1928-05-16,550.0
1928-05-17,550.0
1928-05-18,522.0
1928-05-19,510.0
1928-05-20,510.0
1928-05-21,550.0
1928-05-22,605.0
1928-05-23,734.0
1928-05-24,812.0
1928-05-25,901.0
1928-05-26,1110.0
1928-05-27,1220.0
1928-05-28,1500.0
1928-05-29,1520.0
1928-05-30,1500.0
1928-05-31,1540.0
1928-06-01,1310.0
1928-06-02,1250.0
1928-06-03,1180.0
1928-06-04,901.0
1928-06-05,758.0
1928-06-06,701.0
1928-06-07,772.0
1928-06-08,797.0
1928-06-09,848.0
1928-06-10,772.0
1928-06-11,807.0
1928-06-12,715.0
1928-06-13,592.0
1928-06-14,634.0
1928-06-15,592.0
1928-06-16,626.0
1928-06-17,706.0
1928-06-18,748.0
1928-06-19,600.0
1928-06-20,550.0
1928-06-21,522.0
1928-06-22,634.0
1928-06-23,715.0
1928-06-24,738.0
1928-06-25,772.0
1928-06-26,848.0
1928-06-27,917.0
1928-06-28,995.0
1928-06-29,1100.0
1928-06-30,1100.0
1928-07-01,967.0
1928-07-02,885.0
1928-07-03,822.0
1928-07-04,758.0
1928-07-05,797.0
1928-07-06,807.0
1928-07-07,758.0
1928-07-08,656.0
1928-07-09,643.0
1928-07-10,647.0
1928-07-11,626.0
1928-07-12,592.0
1928-07-13,643.0
1928-07-14,762.0
1928-07-15,665.0
1928-07-16,643.0
1928-07-17,885.0
1928-07-18,715.0
1928-07-19,724.0
1928-07-20,715.0
1928-07-21,669.0
1928-07-22,584.0
1928-07-23,558.0
1928-07-24,542.0
1928-07-25,502.0
1928-07-26,442.0
1928-07-27,446.0
1928-07-28,458.0
1928-07-29,474.0
1928-07-30,502.0
1928-07-31,450.0
1928-08-01,400.0
1928-08-02,377.0
1928-08-03,343.0
1928-08-04,311.0
1928-08-05,274.0
1928-08-06,252.0
1928-08-07,228.0
1928-08-08,222.0
1928-08-09,217.0
1928-08-10,217.0
1928-08-11,222.0
1928-08-12,222.0
1928-08-13,222.0
1928-08-14,212.0
1928-08-15,206.0
1928-08-16,265.0
1928-08-17,268.0
1928-08-18,222.0
1928-08-19,196.0
1928-08-20,180.0
1928-08-21,173.0
1928-08-22,169.0
1928-08-23,162.0
1928-08-24,158.0
1928-08-25,146.0
1928-08-26,133.0
1928-08-27,119.0
1928-08-28,116.0
1928-08-29,113.0
1928-08-30,108.0
1928-08-31,108.0
1928-09-01,112.0
1928-09-02,106.0
1928-09-03,96.0
1928-09-04,86.0
1928-09-05,81.0
1928-09-06,76.0
1928-09-07,73.0
1928-09-08,73.0
1928-09-09,78.0
1928-09-10,82.0
1928-09-11,87.0
1928-09-12,82.0
1928-09-13,73.0
1928-09-14,65.0
1928-09-15,58.0
1928-09-16,55.0
1928-09-17,59.0
1928-09-18,60.0
1928-09-19,61.0
1928-09-20,62.0
1928-09-21,63.0
1928-09-22,59.0
1928-09-23,56.0
1928-09-24,53.0
1928-09-25,49.0
1928-09-26,47.0
1928-09-27,47.0
1928-09-28,49.0
1928-09-29,47.0
1928-09-30,47.0
1928-10-01,45.0
1928-10-02,49.0
1928-10-03,47.0
1928-10-04,44.0
1928-10-05,44.0
1928-10-06,43.0
1928-10-07,41.0
1928-10-08,39.0
1928-10-09,38.0
1928-10-10,38.0
1928-10-11,38.0
1928-10-12,38.0
1928-10-13,37.0
1928-10-14,
1928-10-15,
1928-10-16,
1928-10-17,
1928-10-18,
1928-10-19,
1928-10-20,
1928-10-21,
1928-10-22,
1928-10-23,
1928-10-24,
1928-10-25,
1928-10-26,
1928-10-27,
1928-10-28,
1928-10-29,
1928-10-30,
1928-10-31,
1928-11-01,
1928-11-02,
1928-11-03,
1928-11-04,
1928-11-05,
1928-11-06,
1928-11-07,
1928-11-08,
1928-11-09,
1928-11-10,
1928-11-11,
1928-11-12,
1928-11-13,
1928-11-14,
1928-11-15,
1928-11-16,
1928-11-17,
1928-11-18,
1928-11-19,
1928-11-20,
1928-11-21,
1928-11-22,
1928-11-23,
1928-11-24,
1928-11-25,
1928-11-26,
1928-11-27,
1928-11-28,
1928-11-29,
1928-11-30,
1928-12-01,
1928-12-02,
1928-12-03,
1928-12-04,
1928-12-05,
1928-12-06,
1928-12-07,
1928-12-08,
1928-12-09,
1928-12-10,
1928-12-11,
1928-12-12,
1928-12-13,
1928-12-14,
1928-12-15,
1928-12-16,
1928-12-17,
1928-12-18,
1928-12-19,
1928-12-20,
1928-12-21,
1928-12-22,
1928-12-23,
1928-12-24,
1928-12-25,
1928-12-26,
1928-12-27,
1928-12-28,
1928-12-29,
1928-12-30,
1928-12-31,
1929-01-01,
1929-01-02,
1929-01-03,
1929-01-04,
1929-01-05,
1929-01-06,
1929-01-07,
1929-01-08,
1929-01-09,
1929-01-10,
1929-01-11,
1929-01-12,
1929-01-13,
1929-01-14,
1929-01-15,
1929-01-16,
1929-01-17,
1929-01-18,
1929-01-19,
1929-01-20,
1929-01-21,
1929-01-22,
1929-01-23,
1929-01-24,
1929-01-25,
1929-01-26,
1929-01-27,
1929-01-28,
1929-01-29,
1929-01-30,
1929-01-31,
1929-02-01,
1929-02-02,
1929-02-03,
1929-02-04,
1929-02-05,
1929-02-06,
1929-02-07,
1929-02-08,
1929-02-09,
1929-02-10,
1929-02-11,
1929-02-12,
1929-02-13,
1929-02-14,
1929-02-15,
1929-02-16,
1929-02-17,
1929-02-18,
1929-02-19,
1929-02-20,
1929-02-21,
1929-02-22,
1929-02-23,
1929-02-24,
1929-02-25,
1929-02-26,
1929-02-27,
1929-02-28,
1929-03-01,
1929-03-02,
1929-03-03,
1929-03-04,
1929-03-05,
1929-03-06,
1929-03-07,
1929-03-08,
1929-03-09,
1929-03-10,
1929-03-11,
1929-03-12,
1929-03-13,
1929-03-14,
1929-03-15,
1929-03-16,
1929-03-17,
1929-03-18,
1929-03-19,
1929-03-20,
1929-03-21,
1929-03-22,
1929-03-23,
1929-03-24,
1929-03-25,
1929-03-26,
1929-03-27,
1929-03-28,
1929-03-29,
1929-03-30,
1929-03-31,
1929-04-01,
1929-04-02,
1929-04-03,
1929-04-04,
1929-04-05,
1929-04-06,
1929-04-07,
1929-04-08,
1929-04-09,
1929-04-10,
1929-04-11,
1929-04-12,
1929-04-13,
1929-04-14,
1929-04-15,
1929-04-16,
1929-04-17,
1929-04-18,
1929-04-19,
1929-04-20,
1929-04-21,
1929-04-22,
1929-04-23,
1929-04-24,
1929-04-25,
1929-04-26,
1929-04-27,
1929-04-28,
1929-04-29,
1929-04-30,
1929-05-01,
1929-05-02,
1929-05-03,
1929-05-04,
1929-05-05,
1929-05-06,
1929-05-07,
1929-05-08,
1929-05-09,
1929-05-10,
1929-05-11,
1929-05-12,
1929-05-13,
1929-05-14,375.0
1929-05-15,258.0
1929-05-16,179.0
1929-05-17,197.0
1929-05-18,173.0
1929-05-19,260.0
1929-05-20,242.0
1929-05-21,130.0
1929-05-22,116.0
1929-05-23,120.0
1929-05-24,150.0
1929-05-25,200.0
1929-05-26,250.0
1929-05-27,240.0
1929-05-28,220.0
1929-05-29,200.0
1929-05-30,200.0
1929-05-31,300.0
1929-06-01,560.0
1929-06-02,670.0
1929-06-03,630.0
1929-06-04,645.0
1929-06-05,748.0
1929-06-06,835.0
1929-06-07,835.0
1929-06-08,995.0
1929-06-09,1030.0
1929-06-10,835.0
1929-06-11,805.0
1929-06-12,670.0
1929-06-13,575.0
1929-06-14,645.0
1929-06-15,835.0
1929-06-16,775.0
1929-06-17,740.0
1929-06-18,700.0
1929-06-19,630.0
1929-06-20,645.0
1929-06-21,720.0
1929-06-22,805.0
1929-06-23,835.0
1929-06-24,775.0
1929-06-25,775.0
1929-06-26,748.0
1929-06-27,805.0
1929-06-28,805.0
1929-06-29,805.0
1929-06-30,720.0
1929-07-01,748.0
1929-07-02,670.0
1929-07-03,670.0
1929-07-04,620.0
1929-07-05,552.0
1929-07-06,552.0
1929-07-07,490.0
1929-07-08,490.0
1929-07-09,417.0
1929-07-10,405.0
1929-07-11,393.0
1929-07-12,417.0
1929-07-13,510.0
1929-07-14,670.0
1929-07-15,645.0
1929-07-16,670.0
1929-07-17,645.0
1929-07-18,530.0
1929-07-19,490.0
1929-07-20,552.0
1929-07-21,530.0
1929-07-22,530.0
1929-07-23,600.0
1929-07-24,700.0
1929-07-25,695.0
1929-07-26,598.0
1929-07-27,620.0
1929-07-28,1240.0
1929-07-29,805.0
1929-07-30,865.0
1929-07-31,805.0
1929-08-01,805.0
1929-08-02,720.0
1929-08-03,865.0
1929-08-04,695.0
1929-08-05,645.0
1929-08-06,1140.0
1929-08-07,1060.0
1929-08-08,865.0
1929-08-09,720.0
1929-08-10,620.0
1929-08-11,552.0
1929-08-12,510.0
1929-08-13,490.0
1929-08-14,451.0
1929-08-15,417.0
1929-08-16,387.0
1929-08-17,366.0
1929-08-18,372.0
1929-08-19,424.0
1929-08-20,381.0
1929-08-21,351.0
1929-08-22,336.0
1929-08-23,330.0
1929-08-24,318.0
1929-08-25,288.0
1929-08-26,336.0
1929-08-27,272.0
1929-08-28,272.0
1929-08-29,303.0
1929-08-30,354.0
1929-08-31,309.0
1929-09-01,298.0
1929-09-02,290.0
1929-09-03,378.0
1929-09-04,363.0
1929-09-05,342.0
1929-09-06,387.0
1929-09-07,372.0
1929-09-08,357.0
1929-09-09,330.0
1929-09-10,330.0
1929-09-11,339.0
1929-09-12,327.0
1929-09-13,324.0
1929-09-14,333.0
1929-09-15,339.0
1929-09-16,312.0
1929-09-17,288.0
1929-09-18,280.0
1929-09-19,270.0
1929-09-20,258.0
1929-09-21,270.0
1929-09-22,280.0
1929-09-23,278.0
1929-09-24,262.0
1929-09-25,245.0
1929-09-26,235.0
1929-09-27,220.0
1929-09-28,208.0
1929-09-29,201.0
1929-09-30,199.0
1929-10-01,192.0
1929-10-02,183.0
1929-10-03,206.0
1929-10-04,197.0
1929-10-05,175.0
1929-10-06,163.0
1929-10-07,161.0
1929-10-08,188.0
1929-10-09,215.0
1929-10-10,206.0
1929-10-11,192.0
1929-10-12,175.0
1929-10-13,169.0
1929-10-14,159.0
1929-10-15,149.0
1929-10-16,143.0
1929-10-17,134.0
1929-10-18,132.0
1929-10-19,126.0
1929-10-20,118.0
1929-10-21,110.0
1929-10-22,104.0
1929-10-23,95.0
1929-10-24,81.0
1929-10-25,95.0
1929-10-26,101.0
1929-10-27,99.0
1929-10-28,94.0
1929-10-29,95.0
1929-10-30,91.0
1929-10-31,94.0
1929-11-01,80.0
1929-11-02,85.0
1929-11-03,97.0
1929-11-04,90.0
1929-11-05,101.0
1929-11-06,85.0
1929-11-07,78.0
1929-11-08,73.0
1929-11-09,89.0
1929-11-10,67.0
1929-11-11,65.0
1929-11-12,52.0
1929-11-13,50.0
1929-11-14,60.0
1929-11-15,83.0
1929-11-16,81.0
1929-11-17,76.0
1929-11-18,
1929-11-19,
1929-11-20,
1929-11-21,
1929-11-22,
1929-11-23,
1929-11-24,
1929-11-25,
1929-11-26,
1929-11-27,
1929-11-28,
1929-11-29,
1929-11-30,
1929-12-01,
1929-12-02,
1929-12-03,
1929-12-04,
1929-12-05,
1929-12-06,
1929-12-07,
1929-12-08,
1929-12-09,
1929-12-10,
1929-12-11,
1929-12-12,
1929-12-13,
1929-12-14,
1929-12-15,
1929-12-16,
1929-12-17,
1929-12-18,
1929-12-19,
1929-12-20,
1929-12-21,
1929-12-22,
1929-12-23,
1929-12-24,
1929-12-25,
1929-12-26,
1929-12-27,
1929-12-28,
1929-12-29,
1929-12-30,
1929-12-31,
1930-01-01,
1930-01-02,
1930-01-03,
1930-01-04,
1930-01-05,
1930-01-06,
1930-01-07,
1930-01-08,
1930-01-09,
1930-01-10,
1930-01-11,
1930-01-12,
1930-01-13,
1930-01-14,
1930-01-15,
1930-01-16,
1930-01-17,
1930-01-18,
1930-01-19,
1930-01-20,
1930-01-21,
1930-01-22,
1930-01-23,
1930-01-24,
1930-01-25,
1930-01-26,
1930-01-27,
1930-01-28,
1930-01-29,
1930-01-30,
1930-01-31,
1930-02-01,
1930-02-02,
1930-02-03,
1930-02-04,
1930-02-05,
1930-02-06,
1930-02-07,
1930-02-08,
1930-02-09,
1930-02-10,
1930-02-11,
1930-02-12,
1930-02-13,
1930-02-14,
1930-02-15,
1930-02-16,
1930-02-17,
1930-02-18,
1930-02-19,
1930-02-20,
1930-02-21,
1930-02-22,
1930-02-23,
1930-02-24,
1930-02-25,
1930-02-26,
1930-02-27,
1930-02-28,
1930-03-01,
1930-03-02,
1930-03-03,
1930-03-04,
1930-03-05,
1930-03-06,
1930-03-07,
1930-03-08,
1930-03-09,
1930-03-10,
1930-03-11,
1930-03-12,
1930-03-13,
1930-03-14,
1930-03-15,
1930-03-16,
1930-03-17,
1930-03-18,
1930-03-19,
1930-03-20,
1930-03-21,
1930-03-22,
1930-03-23,
1930-03-24,
1930-03-25,
1930-03-26,
1930-03-27,
1930-03-28,
1930-03-29,
1930-03-30,
1930-03-31,
1930-04-01,20.0
1930-04-02,28.0
1930-04-03,33.0
1930-04-04,40.0
1930-04-05,42.0
1930-04-06,52.0
1930-04-07,60.0
1930-04-08,68.0
1930-04-09,82.0
1930-04-10,94.0
1930-04-11,94.0
1930-04-12,98.0
1930-04-13,105.0
1930-04-14,125.0
1930-04-15,139.0
1930-04-16,135.0
1930-04-17,85.0
1930-04-18,77.0
1930-04-19,64.0
1930-04-20,60.0
1930-04-21,63.0
1930-04-22,86.0
1930-04-23,104.0
1930-04-24,137.0
1930-04-25,192.0
1930-04-26,181.0
1930-04-27,171.0
1930-04-28,163.0
1930-04-29,159.0
1930-04-30,153.0
1930-05-01,161.0
1930-05-02,179.0
1930-05-03,232.0
1930-05-04,201.0
1930-05-05,171.0
1930-05-06,149.0
1930-05-07,130.0
1930-05-08,126.0
1930-05-09,123.0
1930-05-10,113.0
1930-05-11,105.0
1930-05-12,98.0
1930-05-13,95.0
1930-05-14,92.0
1930-05-15,105.0
1930-05-16,134.0
1930-05-17,159.0
1930-05-18,137.0
1930-05-19,157.0
1930-05-20,151.0
1930-05-21,206.0
1930-05-22,295.0
1930-05-23,230.0
1930-05-24,180.0
1930-05-25,210.0
1930-05-26,240.0
1930-05-27,360.0
1930-05-28,450.0
1930-05-29,480.0
1930-05-30,530.0
1930-05-31,570.0
1930-06-01,530.0
1930-06-02,390.0
1930-06-03,306.0
1930-06-04,295.0
1930-06-05,288.0
1930-06-06,312.0
1930-06-07,396.0
1930-06-08,498.0
1930-06-09,552.0
1930-06-10,539.0
1930-06-11,518.0
1930-06-12,598.0
1930-06-13,602.0
1930-06-14,544.0
1930-06-15,448.0
1930-06-16,452.0
1930-06-17,462.0
1930-06-18,462.0
1930-06-19,438.0
1930-06-20,441.0
1930-06-21,510.0
1930-06-22,630.0
1930-06-23,562.0
1930-06-24,430.0
1930-06-25,378.0
1930-06-26,336.0
1930-06-27,330.0
1930-06-28,321.0
1930-06-29,315.0
1930-06-30,292.0
1930-07-01,292.0
1930-07-02,288.0
1930-07-03,270.0
1930-07-04,260.0
1930-07-05,262.0
1930-07-06,258.0
1930-07-07,248.0
1930-07-08,238.0
1930-07-09,240.0
1930-07-10,245.0
1930-07-11,252.0
1930-07-12,298.0
1930-07-13,472.0
1930-07-14,469.0
1930-07-15,357.0
1930-07-16,285.0
1930-07-17,262.0
1930-07-18,345.0
1930-07-19,306.0
1930-07-20,318.0
1930-07-21,290.0
1930-07-22,295.0
1930-07-23,268.0
1930-07-24,255.0
1930-07-25,245.0
1930-07-26,235.0
1930-07-27,215.0
1930-07-28,215.0
1930-07-29,280.0
1930-07-30,430.0
1930-07-31,417.0
1930-08-01,339.0
1930-08-02,298.0
1930-08-03,282.0
1930-08-04,369.0
1930-08-05,366.0
1930-08-06,351.0
1930-08-07,396.0
1930-08-08,330.0
1930-08-09,363.0
1930-08-10,396.0
1930-08-11,414.0
1930-08-12,430.0
1930-08-13,483.0
1930-08-14,1140.0
1930-08-15,1200.0
1930-08-16,823.0
1930-08-17,670.0
1930-08-18,548.0
1930-08-19,462.0
1930-08-20,396.0
1930-08-21,372.0
1930-08-22,348.0
1930-08-23,324.0
1930-08-24,300.0
1930-08-25,275.0
1930-08-26,268.0
1930-08-27,255.0
1930-08-28,265.0
1930-08-29,270.0
1930-08-30,232.0
1930-08-31,213.0
1930-09-01,194.0
1930-09-02,183.0
1930-09-03,179.0
1930-09-04,175.0
1930-09-05,186.0
1930-09-06,197.0
1930-09-07,183.0
1930-09-08,190.0
1930-09-09,192.0
1930-09-10,173.0
1930-09-11,157.0
1930-09-12,141.0
1930-09-13,130.0
1930-09-14,123.0
1930-09-15,116.0
1930-09-16,107.0
1930-09-17,104.0
1930-09-18,92.0
1930-09-19,92.0
1930-09-20,89.0
1930-09-21,85.0
1930-09-22,83.0
1930-09-23,84.0
1930-09-24,86.0
1930-09-25,102.0
1930-09-26,102.0
1930-09-27,95.0
1930-09-28,90.0
1930-09-29,86.0
1930-09-30,84.0
1930-10-01,90.0
1930-10-02,95.0
1930-10-03,100.0
1930-10-04,100.0
1930-10-05,98.0
1930-10-06,95.0
1930-10-07,93.0
1930-10-08,93.0
1930-10-09,92.0
1930-10-10,90.0
1930-10-11,90.0
1930-10-12,90.0
1930-10-13,90.0
1930-10-14,85.0
1930-10-15,83.0
1930-10-16,79.0
1930-10-17,65.0
1930-10-18,78.0
1930-10-19,72.0
1930-10-20,69.0
1930-10-21,67.0
1930-10-22,60.0
1930-10-23,60.0
1930-10-24,60.0
1930-10-25,55.0
1930-10-26,55.0
1930-10-27,51.0
1930-10-28,47.0
1930-10-29,50.0
1930-10-30,49.0
1930-10-31,49.0
1930-11-01,51.0
1930-11-02,50.0
1930-11-03,48.0
1930-11-04,47.0
1930-11-05,54.0
1930-11-06,
1930-11-07,
1930-11-08,
1930-11-09,
1930-11-10,
1930-11-11,
1930-11-12,
1930-11-13,
1930-11-14,
1930-11-15,
1930-11-16,
1930-11-17,
1930-11-18,
1930-11-19,
1930-11-20,
1930-11-21,
1930-11-22,
1930-11-23,
1930-11-24,
1930-11-25,
1930-11-26,
1930-11-27,
1930-11-28,
1930-11-29,
1930-11-30,
1930-12-01,
1930-12-02,
1930-12-03,
1930-12-04,
1930-12-05,
1930-12-06,
1930-12-07,
1930-12-08,
1930-12-09,
1930-12-10,
1930-12-11,
1930-12-12,
1930-12-13,
1930-12-14,
1930-12-15,
1930-12-16,
1930-12-17,
1930-12-18,
1930-12-19,
1930-12-20,
1930-12-21,
1930-12-22,
1930-12-23,
1930-12-24,
1930-12-25,
1930-12-26,
1930-12-27,
1930-12-28,
1930-12-29,
1930-12-30,
1930-12-31,
1931-01-01,
1931-01-02,
1931-01-03,
1931-01-04,
1931-01-05,
1931-01-06,
1931-01-07,
1931-01-08,
1931-01-09,
1931-01-10,
1931-01-11,
1931-01-12,
1931-01-13,
1931-01-14,
1931-01-15,
1931-01-16,
1931-01-17,
1931-01-18,
1931-01-19,
1931-01-20,
1931-01-21,
1931-01-22,
1931-01-23,
1931-01-24,
1931-01-25,
1931-01-26,
1931-01-27,
1931-01-28,
1931-01-29,
1931-01-30,
1931-01-31,
1931-02-01,
1931-02-02,
1931-02-03,
1931-02-04,
1931-02-05,
1931-02-06,
1931-02-07,
1931-02-08,
1931-02-09,
1931-02-10,
1931-02-11,
1931-02-12,
1931-02-13,
1931-02-14,
1931-02-15,
1931-02-16,
1931-02-17,
1931-02-18,
1931-02-19,
1931-02-20,
1931-02-21,
1931-02-22,
1931-02-23,
1931-02-24,
1931-02-25,
1931-02-26,
1931-02-27,
1931-02-28,
1931-03-01,
1931-03-02,
1931-03-03,
1931-03-04,
1931-03-05,
1931-03-06,
1931-03-07,
1931-03-08,
1931-03-09,
1931-03-10,
1931-03-11,
1931-03-12,
1931-03-13,
1931-03-14,
1931-03-15,
1931-03-16,
1931-03-17,
1931-03-18,
1931-03-19,
1931-03-20,
1931-03-21,
1931-03-22,
1931-03-23,
1931-03-24,
1931-03-25,
1931-03-26,
1931-03-27,
1931-03-28,
1931-03-29,
1931-03-30,
1931-03-31,
1931-04-01,24.0
1931-04-02,28.0
1931-04-03,20.0
1931-04-04,20.0
1931-04-05,20.0
1931-04-06,24.0
1931-04-07,35.0
1931-04-08,50.0
1931-04-09,40.0
1931-04-10,42.0
1931-04-11,48.0
1931-04-12,45.0
1931-04-13,50.0
1931-04-14,57.0
1931-04-15,55.0
1931-04-16,50.0
1931-04-17,55.0
1931-04-18,62.0
1931-04-19,74.0
1931-04-20,72.0
1931-04-21,52.0
1931-04-22,51.0
1931-04-23,38.0
1931-04-24,42.0
1931-04-25,47.0
1931-04-26,39.0
1931-04-27,47.0
1931-04-28,52.0
1931-04-29,58.0
1931-04-30,71.0
1931-05-01,92.0
1931-05-02,104.0
1931-05-03,130.0